View from above orbital plane
|
View from above satellite
|
Ground track
|
The orbit data is extracted from the following two-line orbital elements,
1 41168U 15077C 21023.27814677 .00002168 00000-0 76083-4 0 9995
2 41168 14.9872 247.8813 0011198 309.0422 197.1436 15.15095198282722
Epoch (UTC): | 23 January 2021 06:40:31 |
Eccentricity: | 0.0011198 |
inclination: | 14.9872° |
perigee height: | 513 km |
apogee height: | 528 km |
right ascension of ascending node: | 247.8813° |
argument of perigee: | 309.0422° |
revolutions per day: | 15.15095198 |
mean anomaly at epoch: | 197.1436° |
orbit number at epoch: | 28272 |
The dashed part of the orbit path shows where the satellite is in the earth's shadow,
|
|